Faribault, MN

9:02 PM CDT on August 18, 2017 (GMT -0500)
Faribault Municipal

Weather History for KFBL - October, 2011

Change the Weather History Date:

Wednesday, October 26, 2011

  Actual Average Record
Temperature  
Mean Temperature 42 °F -  
Max Temperature 48 °F 57 °F 82 °F (1955)
Min Temperature 37 °F 35 °F 18 °F (1988)
Degree Days  
Heating Degree Days 22    
Moisture  
Dew Point 34 °F    
Average Humidity 75    
Maximum Humidity 87    
Minimum Humidity 58    
Precipitation  
Precipitation 0.00 in - - ()
Sea Level Pressure  
Sea Level Pressure 30.06 in    
Wind  
Wind Speed 5 mph (NNW)    
Max Wind Speed 12 mph    
Max Gust Speed 17 mph    
Visibility 10 miles    
Events      
Averages and records for this station are not official NWS values.
T = Trace of Precipitation, MM = Missing Value Source: NWS Daily Summary

Daily Weather History Graph

Daily Weather History Graph

Search for Another Location

Airport or City:

Trip Planner

Search our weather history database for the weather conditions in past years. The results will help you decide how hot, cold, wet, or windy it might be!

Date:

Astronomy

Oct. 26, 2011 Rise Set
Actual Time 7:42 AM CDT 6:11 PM CDT
Civil Twilight 7:12 AM CDT 6:41 PM CDT
Nautical Twilight 6:38 AM CDT 7:15 PM CDT
Astronomical Twilight 6:04 AM CDT 7:49 PM CDT
Moon 7:32 AM CDT (10/26) 5:51 PM CDT (10/26)
Length of Visible Light 11h 29m
Length of Day
10h 29m
Waning Crescent, 0% of the Moon is Illuminated
Oct 26
Waning Crescent
Oct 26
New
Nov 2
First Quarter
Nov 10
Full
Nov 18
Last Quarter

Hourly Weather History & Observations

Time (CDT) Temp. Windchill Dew Point Humidity Pressure Visibility Wind Dir Wind Speed Gust Speed Precip Events Conditions
12:14 AM 39.2 °F 35.0 °F 33.8 °F 81% 30.01 in 10.0 mi North 5.8 mph - N/A   Scattered Clouds
12:33 AM 39.2 °F 35.0 °F 33.8 °F 81% 30.02 in 10.0 mi NNW 5.8 mph - N/A   Clear
12:54 AM 39.2 °F 35.0 °F 33.8 °F 81% 30.02 in 10.0 mi North 5.8 mph - N/A   Mostly Cloudy
1:14 AM 39.2 °F 35.0 °F 35.6 °F 87% 30.01 in 10.0 mi North 5.8 mph - N/A   Overcast
1:33 AM 41.0 °F 36.4 °F 35.6 °F 81% 30.02 in 10.0 mi North 6.9 mph - N/A   Overcast
1:54 AM 41.0 °F 36.4 °F 35.6 °F 81% 30.03 in 10.0 mi North 6.9 mph - N/A   Overcast
2:14 AM 41.0 °F 36.4 °F 35.6 °F 81% 30.02 in 10.0 mi North 6.9 mph - N/A   Overcast
2:34 AM 41.0 °F 37.1 °F 35.6 °F 81% 30.03 in 10.0 mi North 5.8 mph - N/A   Overcast
2:54 AM 41.0 °F 36.4 °F 35.6 °F 81% 30.03 in 10.0 mi North 6.9 mph - N/A   Mostly Cloudy
3:14 AM 39.2 °F 33.6 °F 33.8 °F 81% 30.04 in 10.0 mi North 8.1 mph - N/A   Scattered Clouds
3:33 AM 39.2 °F 35.0 °F 33.8 °F 81% 30.04 in 10.0 mi North 5.8 mph - N/A   Overcast
3:54 AM 39.2 °F 35.0 °F 35.6 °F 87% 30.05 in 10.0 mi North 5.8 mph - N/A   Overcast
4:13 AM 39.2 °F 34.2 °F 35.6 °F 87% 30.06 in 10.0 mi North 6.9 mph - N/A   Overcast
4:34 AM 39.2 °F 35.0 °F 35.6 °F 87% 30.06 in 10.0 mi North 5.8 mph - N/A   Overcast
4:53 AM 39.2 °F 35.0 °F 35.6 °F 87% 30.06 in 10.0 mi North 5.8 mph - N/A   Overcast
5:14 AM 39.2 °F 35.0 °F 33.8 °F 81% 30.05 in 10.0 mi North 5.8 mph - N/A   Overcast
5:33 AM 39.2 °F 35.0 °F 33.8 °F 81% 30.06 in 10.0 mi North 5.8 mph - N/A   Overcast
6:13 AM 39.2 °F 37.0 °F 33.8 °F 81% 30.06 in 10.0 mi NNE 3.5 mph - N/A   Scattered Clouds
6:34 AM 37.4 °F 33.8 °F 33.8 °F 87% 30.06 in 10.0 mi North 4.6 mph - N/A   Clear
6:53 AM 37.4 °F 34.9 °F 33.8 °F 87% 30.06 in 10.0 mi North 3.5 mph - N/A   Clear
7:13 AM 37.4 °F - 33.8 °F 87% 30.06 in 10.0 mi Calm Calm - N/A   Scattered Clouds
7:34 AM 37.4 °F - 33.8 °F 87% 30.07 in 10.0 mi Calm Calm - N/A   Mostly Cloudy
7:53 AM 37.4 °F - 33.8 °F 87% 30.06 in 10.0 mi Calm Calm - N/A   Overcast
8:14 AM 37.4 °F - 33.8 °F 87% 30.06 in 10.0 mi Calm Calm - N/A   Mostly Cloudy
8:33 AM 37.4 °F - 33.8 °F 87% 30.06 in 10.0 mi Calm Calm - N/A   Scattered Clouds
8:54 AM 37.4 °F - 33.8 °F 87% 30.07 in 10.0 mi Calm Calm - N/A   Clear
9:34 AM 39.2 °F - 35.6 °F 87% 30.08 in 10.0 mi Calm Calm - N/A   Clear
10:14 AM 42.8 °F - 35.6 °F 76% 30.09 in 10.0 mi Calm Calm - N/A   Mostly Cloudy
10:33 AM 42.8 °F - 33.8 °F 70% 30.09 in 10.0 mi Calm Calm - N/A   Overcast
10:54 AM 44.6 °F - 33.8 °F 66% 30.09 in 10.0 mi Calm Calm - N/A   Overcast
11:13 AM 44.6 °F - 33.8 °F 66% 30.10 in 10.0 mi Calm Calm - N/A   Overcast
11:34 AM 44.6 °F 43.1 °F 33.8 °F 66% 30.11 in 10.0 mi North 3.5 mph - N/A   Overcast
11:54 AM 44.6 °F 41.4 °F 33.8 °F 66% 30.10 in 10.0 mi North 5.8 mph - N/A   Overcast
12:13 PM 46.4 °F - 33.8 °F 62% 30.09 in 10.0 mi Calm Calm - N/A   Overcast
12:34 PM 46.4 °F 44.3 °F 33.8 °F 62% 30.10 in 10.0 mi NW 4.6 mph - N/A   Overcast
12:53 PM 46.4 °F 43.5 °F 33.8 °F 62% 30.10 in 10.0 mi NW 5.8 mph - N/A   Overcast
1:13 PM 46.4 °F 42.4 °F 33.8 °F 62% 30.09 in 10.0 mi NNW 8.1 mph - N/A   Overcast
1:34 PM 46.4 °F 44.3 °F 33.8 °F 62% 30.08 in 10.0 mi NW 4.6 mph - N/A   Overcast
1:53 PM 48.2 °F - 33.8 °F 58% 30.08 in 10.0 mi WNW 6.9 mph - N/A   Mostly Cloudy
2:14 PM 48.2 °F - 33.8 °F 58% 30.07 in 10.0 mi NW 8.1 mph - N/A   Mostly Cloudy
2:34 PM 48.2 °F - 33.8 °F 58% 30.07 in 10.0 mi West 9.2 mph - N/A   Mostly Cloudy
2:54 PM 46.4 °F 41.9 °F 33.8 °F 62% 30.06 in 10.0 mi West 9.2 mph - N/A   Overcast
3:13 PM 46.4 °F 42.9 °F 33.8 °F 62% 30.07 in 10.0 mi WNW 6.9 mph - N/A   Overcast
3:34 PM 46.4 °F 41.1 °F 33.8 °F 62% 30.06 in 10.0 mi WNW 11.5 mph 17.3 mph N/A   Scattered Clouds
3:54 PM 46.4 °F 41.9 °F 33.8 °F 62% 30.06 in 10.0 mi WNW 9.2 mph - N/A   Mostly Cloudy
4:14 PM 48.2 °F - 33.8 °F 58% 30.06 in 10.0 mi NW 6.9 mph - N/A   Scattered Clouds
4:33 PM 48.2 °F - 33.8 °F 58% 30.05 in 10.0 mi NW 9.2 mph - N/A   Clear
4:54 PM 46.4 °F 41.9 °F 33.8 °F 62% 30.04 in 10.0 mi NNW 9.2 mph - N/A   Clear
5:14 PM 44.6 °F 40.7 °F 35.6 °F 71% 30.04 in 10.0 mi WNW 6.9 mph - N/A   Scattered Clouds
5:34 PM 44.6 °F 42.2 °F 33.8 °F 66% 30.04 in 10.0 mi WNW 4.6 mph - N/A   Mostly Cloudy
5:53 PM 44.6 °F 41.4 °F 33.8 °F 66% 30.05 in 10.0 mi NW 5.8 mph - N/A   Scattered Clouds
6:14 PM 42.8 °F 41.1 °F 33.8 °F 70% 30.05 in 10.0 mi NNW 3.5 mph - N/A   Scattered Clouds
6:33 PM 42.8 °F - 33.8 °F 70% 30.05 in 10.0 mi Calm Calm - N/A   Clear
7:14 PM 41.0 °F - 33.8 °F 76% 30.05 in 10.0 mi Calm Calm - N/A   Scattered Clouds
7:34 PM 39.2 °F - 33.8 °F 81% 30.05 in 10.0 mi Calm Calm - N/A   Scattered Clouds
7:54 PM 39.2 °F 35.9 °F 33.8 °F 81% 30.05 in 10.0 mi WNW 4.6 mph - N/A   Scattered Clouds
8:14 PM 39.2 °F 37.0 °F 33.8 °F 81% 30.05 in 10.0 mi WNW 3.5 mph - N/A   Clear
8:33 PM 39.2 °F 37.0 °F 33.8 °F 81% 30.06 in 10.0 mi WNW 3.5 mph - N/A   Clear
8:54 PM 39.2 °F 37.0 °F 33.8 °F 81% 30.05 in 10.0 mi WNW 3.5 mph - N/A   Clear
9:14 PM 39.2 °F 37.0 °F 33.8 °F 81% 30.06 in 10.0 mi WNW 3.5 mph - N/A   Clear
9:33 PM 37.4 °F - 33.8 °F 87% 30.06 in 10.0 mi Calm Calm - N/A   Clear
9:54 PM 37.4 °F - 33.8 °F 87% 30.06 in 10.0 mi Calm Calm - N/A   Clear
10:13 PM 37.4 °F - 33.8 °F 87% 30.06 in 10.0 mi Calm Calm - N/A   Clear
10:33 PM 35.6 °F - 32.0 °F 87% 30.06 in 10.0 mi Calm Calm - N/A   Clear
10:54 PM 35.6 °F - 33.8 °F 93% 30.06 in 10.0 mi Calm Calm - N/A   Clear
11:14 PM 37.4 °F - 33.8 °F 87% 30.06 in 10.0 mi Calm Calm - N/A   Mostly Cloudy
11:33 PM 35.6 °F - 32.0 °F 87% 30.06 in 10.0 mi Calm Calm - N/A   Overcast
11:54 PM 37.4 °F - 33.8 °F 87% 30.05 in 10.0 mi Calm Calm - N/A   Overcast